STARLINK-5801 (56005 NORAD) Tracking and Keplerian Element Data

This shows tracking and keplerian element data for the satellite.

Feedback or suggestion? Click here.




ElementValue
Catalog56005
NameSTARLINK-5801
Epoch Orbit712
Epoch Day127.00001157
Epoch Year2023
RAAN297.5596
Inclination43.001
Eccentricity0.0001441
Argument of Perigee271.9133
Mean Anonmoly332.4124
Mean Motion15.37125627
Decay Rate-0.00922631
L11 56005U 23042V 23127.00001157 -.00922631 00000+0 -27092-1 0 9991
L22 56005 43.0010 297.5596 0001441 271.9133 332.4124 15.37125627 7123



Live tracking and technical data element details for STARLINK-5801 (NORAD 56005). STARLINK-5801 can be tracked NOW for your location showing map with azimuth and elevation plus other details from your city location.







IsCatalogInMostPopularTable: catalog: 56005, numindb: -1

Insert: records affected: 1


GetName: 56005 STARLINK-5801

Hit Count: inserted at: Mon, 05 Jun 2023 00:35:36 GMT